TimeEDT,TemperatureF,Dew PointF,Humidity,Sea Level PressureIn,VisibilityMPH,Wind Direction,Wind SpeedMPH,Gust SpeedMPH,PrecipitationIn,Events,Conditions,WindDirDegrees,DateUTC
12:15 AM,60.8,41.0,48,30.03,10.0,SW,5.8,-,N/A,,Overcast,220,2013-04-08 04:15:00
12:35 AM,60.8,41.0,48,30.03,10.0,SW,4.6,-,N/A,,Overcast,220,2013-04-08 04:35:00
12:55 AM,59.0,41.0,51,30.03,10.0,SW,4.6,-,N/A,,Overcast,220,2013-04-08 04:55:00
1:15 AM,59.0,41.0,51,30.03,10.0,SW,4.6,-,N/A,,Overcast,220,2013-04-08 05:15:00
1:35 AM,59.0,41.0,51,30.04,10.0,SSW,5.8,-,N/A,,Overcast,210,2013-04-08 05:35:00
1:55 AM,59.0,41.0,51,30.03,10.0,SW,5.8,-,N/A,,Overcast,220,2013-04-08 05:55:00
2:15 AM,59.0,41.0,51,30.03,10.0,SW,4.6,-,N/A,,Overcast,220,2013-04-08 06:15:00
2:35 AM,59.0,41.0,51,30.03,10.0,SW,4.6,-,N/A,,Overcast,220,2013-04-08 06:35:00
2:55 AM,57.2,41.0,55,30.03,10.0,SW,5.8,-,N/A,,Mostly Cloudy,220,2013-04-08 06:55:00
3:15 AM,55.4,41.0,58,30.03,10.0,SW,5.8,-,N/A,,Mostly Cloudy,220,2013-04-08 07:15:00
3:35 AM,59.0,41.0,51,30.02,10.0,SW,5.8,-,N/A,,Mostly Cloudy,220,2013-04-08 07:35:00
3:55 AM,57.2,41.0,55,30.01,10.0,SSW,5.8,-,N/A,,Scattered Clouds,210,2013-04-08 07:55:00
4:15 AM,57.2,41.0,55,30.01,10.0,SSW,6.9,-,N/A,,Scattered Clouds,210,2013-04-08 08:15:00
4:35 AM,55.4,41.0,58,30.01,10.0,SSW,8.1,-,N/A,,Mostly Cloudy,210,2013-04-08 08:35:00
4:55 AM,53.6,41.0,62,30.01,10.0,SSW,6.9,-,N/A,,Scattered Clouds,210,2013-04-08 08:55:00
5:15 AM,55.4,41.0,58,30.01,10.0,SSW,6.9,-,N/A,,Clear,210,2013-04-08 09:15:00
5:35 AM,55.4,41.0,58,30.01,10.0,SSW,5.8,-,N/A,,Clear,210,2013-04-08 09:35:00
5:55 AM,55.4,41.0,58,30.00,10.0,SSW,8.1,-,N/A,,Clear,200,2013-04-08 09:55:00
6:15 AM,55.4,41.0,58,30.01,10.0,SSW,8.1,-,N/A,,Clear,210,2013-04-08 10:15:00
6:35 AM,55.4,42.8,63,30.01,10.0,SSW,8.1,-,N/A,,Scattered Clouds,210,2013-04-08 10:35:00
6:55 AM,55.4,42.8,63,30.01,10.0,SSW,6.9,-,N/A,,Mostly Cloudy,200,2013-04-08 10:55:00
7:15 AM,55.4,42.8,63,30.02,10.0,SSW,6.9,-,N/A,,Scattered Clouds,200,2013-04-08 11:15:00
7:35 AM,55.4,42.8,63,30.02,10.0,SSW,6.9,-,N/A,,Scattered Clouds,210,2013-04-08 11:35:00
7:55 AM,57.2,42.8,59,30.03,10.0,SSW,6.9,-,N/A,,Scattered Clouds,210,2013-04-08 11:55:00
8:15 AM,57.2,44.6,63,30.03,10.0,SSW,9.2,-,N/A,,Mostly Cloudy,210,2013-04-08 12:15:00
8:35 AM,59.0,44.6,59,30.03,10.0,SSW,8.1,-,N/A,,Overcast,210,2013-04-08 12:35:00
8:55 AM,59.0,44.6,59,30.04,10.0,SW,6.9,-,N/A,,Mostly Cloudy,220,2013-04-08 12:55:00
9:15 AM,59.0,44.6,59,30.03,10.0,SW,8.1,-,N/A,,Mostly Cloudy,220,2013-04-08 13:15:00
9:35 AM,60.8,46.4,59,30.03,10.0,SW,6.9,-,N/A,,Overcast,220,2013-04-08 13:35:00
9:55 AM,64.4,46.4,52,30.03,10.0,SW,11.5,16.1,N/A,,Overcast,220,2013-04-08 13:55:00
10:15 AM,66.2,48.2,52,30.02,10.0,WSW,11.5,16.1,N/A,,Mostly Cloudy,240,2013-04-08 14:15:00
10:35 AM,64.4,48.2,56,30.03,10.0,WSW,13.8,20.7,N/A,,Mostly Cloudy,240,2013-04-08 14:35:00
10:55 AM,66.2,50.0,56,30.03,10.0,WSW,10.4,21.9,N/A,,Overcast,240,2013-04-08 14:55:00
11:15 AM,69.8,51.8,53,30.03,10.0,WSW,19.6,27.6,N/A,,Scattered Clouds,240,2013-04-08 15:15:00
11:35 AM,68.0,51.8,56,30.02,10.0,West,15.0,27.6,N/A,,Mostly Cloudy,260,2013-04-08 15:35:00
11:55 AM,69.8,51.8,53,30.02,10.0,WSW,12.7,25.3,N/A,,Overcast,250,2013-04-08 15:55:00
12:15 PM,68.0,51.8,56,30.02,10.0,West,13.8,21.9,N/A,,Overcast,260,2013-04-08 16:15:00
12:35 PM,69.8,51.8,53,30.02,10.0,West,18.4,28.8,N/A,,Overcast,260,2013-04-08 16:35:00
12:55 PM,71.6,51.8,50,30.01,10.0,SW,18.4,27.6,N/A,,Mostly Cloudy,230,2013-04-08 16:55:00
1:15 PM,71.6,50.0,46,30.01,10.0,WSW,24.2,34.5,N/A,,Scattered Clouds,240,2013-04-08 17:15:00
1:35 PM,71.6,51.8,50,30.00,10.0,WSW,18.4,27.6,N/A,,Scattered Clouds,240,2013-04-08 17:35:00
1:55 PM,71.6,50.0,46,30.00,10.0,WSW,19.6,33.4,N/A,,Clear,250,2013-04-08 17:55:00
2:15 PM,71.6,48.2,43,29.99,10.0,WSW,19.6,31.1,N/A,,Scattered Clouds,240,2013-04-08 18:15:00
2:35 PM,73.4,50.0,44,29.99,10.0,WSW,21.9,33.4,N/A,,Mostly Cloudy,250,2013-04-08 18:35:00
2:55 PM,73.4,50.0,44,29.99,10.0,WSW,16.1,25.3,N/A,,Mostly Cloudy,250,2013-04-08 18:55:00
3:15 PM,71.6,50.0,46,29.99,10.0,WSW,21.9,26.5,N/A,,Overcast,250,2013-04-08 19:15:00
3:35 PM,71.6,50.0,46,29.99,10.0,WSW,9.2,20.7,N/A,,Overcast,250,2013-04-08 19:35:00
3:55 PM,69.8,50.0,49,29.99,10.0,West,12.7,21.9,N/A,,Overcast,260,2013-04-08 19:55:00
4:15 PM,69.8,50.0,49,29.99,10.0,WSW,9.2,20.7,N/A,,Overcast,250,2013-04-08 20:15:00
4:35 PM,71.6,50.0,46,29.98,10.0,WSW,10.4,19.6,N/A,,Overcast,250,2013-04-08 20:35:00
4:55 PM,71.6,51.8,50,29.98,10.0,WSW,11.5,17.3,N/A,,Mostly Cloudy,250,2013-04-08 20:55:00
5:15 PM,69.8,50.0,49,29.98,10.0,WSW,11.5,16.1,N/A,,Scattered Clouds,250,2013-04-08 21:15:00
5:35 PM,69.8,50.0,49,29.98,10.0,WSW,15.0,19.6,N/A,,Mostly Cloudy,250,2013-04-08 21:35:00
5:55 PM,69.8,50.0,49,29.99,10.0,West,11.5,-,N/A,,Overcast,260,2013-04-08 21:55:00
6:15 PM,69.8,50.0,49,29.95,10.0,SW,9.2,17.3,N/A,,Mostly Cloudy,220,2013-04-08 22:15:00
6:35 PM,69.8,50.0,49,29.97,10.0,WSW,8.1,-,N/A,,Mostly Cloudy,250,2013-04-08 22:35:00
6:55 PM,69.8,50.0,49,29.98,10.0,West,6.9,-,N/A,,Scattered Clouds,260,2013-04-08 22:55:00
7:15 PM,69.8,50.0,49,29.98,10.0,West,5.8,-,N/A,,Mostly Cloudy,270,2013-04-08 23:15:00
7:35 PM,68.0,50.0,52,29.98,10.0,West,6.9,-,N/A,,Scattered Clouds,260,2013-04-08 23:35:00
7:55 PM,68.0,50.0,52,29.99,10.0,West,4.6,-,N/A,,Clear,270,2013-04-08 23:55:00
8:15 PM,66.2,50.0,56,29.99,10.0,WSW,3.5,-,N/A,,Clear,250,2013-04-09 00:15:00
8:35 PM,64.4,50.0,59,30.00,10.0,Calm,Calm,-,N/A,,Clear,0,2013-04-09 00:35:00
8:55 PM,64.4,50.0,59,30.00,10.0,Calm,Calm,-,N/A,,Clear,0,2013-04-09 00:55:00
9:15 PM,62.6,50.0,63,30.01,10.0,Calm,Calm,-,N/A,,Clear,0,2013-04-09 01:15:00
9:35 PM,60.8,50.0,68,30.02,10.0,Calm,Calm,-,N/A,,Clear,0,2013-04-09 01:35:00
9:55 PM,60.8,50.0,68,30.03,10.0,South,4.6,-,N/A,,Mostly Cloudy,180,2013-04-09 01:55:00
10:15 PM,60.8,50.0,68,30.03,10.0,SW,3.5,-,N/A,,Mostly Cloudy,230,2013-04-09 02:15:00
10:35 PM,59.0,50.0,72,30.03,10.0,SW,3.5,-,N/A,,Mostly Cloudy,230,2013-04-09 02:35:00
10:55 PM,53.6,50.0,88,30.03,10.0,WSW,3.5,-,N/A,,Mostly Cloudy,240,2013-04-09 02:55:00
11:15 PM,55.4,50.0,82,30.04,10.0,Calm,Calm,-,N/A,,Scattered Clouds,0,2013-04-09 03:15:00
11:35 PM,59.0,50.0,72,30.05,10.0,WSW,3.5,-,N/A,,Clear,240,2013-04-09 03:35:00
11:55 PM,55.4,50.0,82,30.05,10.0,Calm,Calm,-,N/A,,Scattered Clouds,0,2013-04-09 03:55:00